{"data":{"norad_id":62395,"epoch":"2026-09-21T18:02:49.737984Z","epoch_age_seconds":203752,"freshness":"STALE","line1":"1 62395U 24247U   26264.75196456  .00036745  00000+0  54919-3 0  9992","line2":"2 62395  44.9906  69.8154 0005353 238.1051 121.9322 15.54426501 98390","mean_motion":15.54426501,"eccentricity":0.0005353,"inclination_deg":44.9906,"raan_deg":69.8154,"arg_perigee_deg":238.1051,"mean_anomaly_deg":121.9322,"bstar":0.00054919,"rev_number":9839,"period_min":92.638667641964,"perigee_km":400.18985101075,"apogee_km":407.4506144241,"semimajor_km":6781.9572327174,"source":"CELESTRAK","updated_at":"2026-09-23T09:00:21.395526Z"}}